Temperature
8 8 8 8 8 8 8 7 7 7 7 7 7 7 7 7 7 7 7 7 7 6 6 6 6 6 6 6 6 5 5 5 5 5 4 4 4 4 4 4 4 4 4
8 7 7 7 7 7 7 7 7 7 7 7 7 7 7 7 6 7 6 6 6 6 6 6 6 5 5 5 5 5 5 4 4 4 4 4 4 4 4 4 4 3 3
7 7 7 7 7 7 7 7 7 6 6 6 6 6 6 6 6 6 6 6 6 6 6 5 5 5 5 5 5 4 4 4 4 3 3 3 3 3 3 3 3 3 3
6 6 6 6 6 6 6 6 6 6 6 6 6 6 6 6 6 6 6 5 5 5 5 5 5 5 5 4 4 4 4 3 3 3 3 3 3 2 2 2 2 3 3
6 6 6 6 6 6 6 6 6 6 6 5 5 5 5 5 5 5 5 5 5 5 5 5 4 4 4 4 3 3 3 3 2 2 2 2 2 2 2 2 2 2 2
5 5 5 5 5 5 5 5 5 5 5 5 5 5 5 5 5 5 5 4 4 4 4 4 4 4 3 3 3 3 2 2 2 2 1 1 1 1 1 1 1 1 1
5 5 5 5 5 5 5 5 5 5 4 4 4 4 4 4 4 4 4 4 4 4 4 3 3 3 3 2 2 2 2 2 1 1 1 1 1 0 0 0 0 -0 -0
4 4 4 4 4 4 4 4 4 4 4 4 4 4 4 4 4 4 3 3 3 3 3 3 2 2 2 2 2 2 1 1 1 1 1 0 0 -0 -0 -0 -1 -1 -0
3 4 4 4 4 4 4 4 4 4 4 3 3 3 3 3 3 3 3 3 3 3 2 2 2 2 2 1 1 1 1 1 1 0 0 -0 -0 -0 -1 -1 -1 -1 -1
3 3 3 3 3 3 3 3 3 3 3 3 3 3 3 3 3 2 2 2 2 2 2 2 1 1 1 1 1 0 0 0 0 0 -0 -0 -0 -1 -1 -1 -1 -2 -2
2 3 3 3 3 3 3 3 3 2 2 2 2 2 2 2 2 2 2 1 1 1 1 1 1 1 1 0 0 0 -0 -0 -1 -1 -1 -1 -1 -1 -1 -1 -2 -2 -2
2 2 2 2 2 2 2 2 2 2 2 2 2 1 1 1 1 1 1 1 1 1 1 1 1 0 0 0 -0 -0 -1 -1 -1 -1 -1 -1 -1 -2 -2 -2 -2 -2 -3
1 1 1 1 1 1 1 1 1 1 1 1 1 1 1 1 0 0 0 0 -0 -0 -0 -0 -0 -0 -1 -1 -1 -1 -1 -1 -1 -2 -2 -2 -2 -2 -2 -2 -3 -3 -3
0 0 0 0 1 1 1 1 1 0 0 0 0 0 0 -0 -0 -0 -1 -1 -1 -1 -1 -1 -1 -1 -1 -1 -1 -1 -2 -2 -2 -2 -2 -2 -2 -3 -3 -3 -3 -3 -3
-1 -1 -0 -0 -0 -0 -0 -0 -0 -0 -0 -0 -0 -0 -1 -1 -1 -1 -1 -1 -1 -1 -1 -1 -2 -2 -2 -2 -2 -2 -2 -2 -2 -2 -3 -3 -3 -3 -3 -3 -4 -4 -4
-1 -1 -1 -1 -1 -1 -1 -1 -1 -1 -1 -1 -1 -1 -2 -2 -2 -2 -2 -2 -2 -2 -2 -2 -2 -2 -2 -2 -2 -3 -3 -3 -3 -3 -3 -3 -3 -3 -3 -4 -4 -4 -4
-2 -2 -2 -2 -2 -2 -2 -2 -2 -2 -2 -2 -2 -2 -2 -2 -2 -2 -2 -2 -2 -3 -3 -3 -3 -3 -3 -3 -3 -3 -3 -3 -3 -4 -4 -4 -4 -4 -4 -4 -4 -5 -5
-3 -3 -3 -3 -3 -3 -3 -3 -3 -3 -3 -3 -3 -3 -3 -3 -3 -3 -3 -3 -3 -3 -3 -3 -3 -3 -3 -3 -3 -4 -4 -4 -4 -4 -4 -4 -4 -4 -5 -5 -5 -5 -5
-3 -3 -3 -3 -3 -3 -3 -3 -3 -4 -4 -3 -3 -3 -3 -3 -3 -4 -4 -4 -4 -4 -4 -4 -4 -4 -4 -4 -4 -4 -4 -4 -4 -4 -4 -5 -5 -5 -5 -5 -5 -5 -6
-4 -4 -4 -4 -4 -4 -4 -4 -4 -4 -4 -4 -4 -4 -4 -4 -4 -4 -4 -4 -4 -4 -4 -4 -4 -4 -4 -4 -5 -5 -5 -5 -5 -5 -5 -5 -5 -5 -6 -6 -6 -6 -6
-4 -4 -4 -4 -4 -4 -4 -4 -5 -5 -5 -5 -5 -5 -5 -5 -5 -5 -5 -5 -5 -5 -5 -5 -5 -5 -5 -5 -5 -5 -5 -5 -5 -5 -6 -6 -6 -6 -6 -6 -6 -7 -7
-5 -5 -5 -5 -5 -5 -5 -5 -5 -5 -5 -5 -5 -5 -5 -5 -5 -5 -5 -5 -5 -5 -5 -5 -5 -5 -5 -5 -6 -6 -6 -6 -6 -6 -6 -6 -6 -6 -6 -7 -7 -7 -7
-5 -5 -5 -6 -6 -5 -5 -5 -6 -6 -6 -6 -6 -6 -6 -6 -6 -6 -6 -6 -6 -6 -6 -6 -6 -6 -6 -6 -6 -6 -6 -6 -6 -6 -6 -6 -6 -7 -7 -7 -7 -7 -7
-6 -6 -6 -6 -6 -6 -6 -6 -6 -6 -6 -6 -6 -6 -6 -6 -6 -6 -6 -6 -6 -6 -6 -6 -6 -6 -6 -6 -6 -6 -7 -7 -7 -7 -7 -7 -7 -7 -7 -7 -7 -7 -8
-7 -7 -7 -7 -6 -6 -6 -6 -6 -7 -7 -7 -7 -7 -7 -7 -7 -7 -6 -6 -6 -6 -6 -6 -6 -6 -7 -7 -7 -7 -7 -7 -7 -7 -7 -7 -7 -7 -7 -7 -8 -8 -8
-7 -7 -7 -7 -7 -7 -7 -7 -7 -7 -7 -7 -7 -7 -7 -7 -7 -7 -7 -7 -7 -7 -7 -7 -7 -7 -7 -7 -7 -7 -7 -7 -7 -7 -7 -7 -7 -7 -8 -8 -8 -8 -8
Wind_Speed
6 6 6 6 6 6 6 6 6 6 7 8 7 7 7 7 6 6 5 5 5 4 3 3 3 3 2 2 2 2 1 2 3 3 2 2 2 3 4 6 7 7 8
6 6 6 6 6 6 6 6 6 7 7 7 7 7 7 7 7 7 6 5 5 5 4 4 3 3 3 2 2 2 2 2 2 4 3 2 3 3 3 4 6 7 8
6 6 6 6 6 6 6 6 6 6 6 6 6 6 6 6 6 6 5 5 5 5 5 5 4 4 3 2 3 3 2 2 1 3 4 2 2 2 3 4 4 5 7
5 6 6 6 6 6 6 6 6 6 7 6 6 6 6 6 6 5 5 4 4 4 4 4 5 5 5 4 3 3 3 2 2 2 3 3 3 3 2 3 4 3 5
5 6 6 5 5 5 6 6 6 6 6 6 6 5 5 5 5 6 5 5 5 4 3 4 4 4 5 4 3 4 4 3 2 2 3 3 3 3 3 3 4 5 5
5 5 5 5 5 5 5 6 6 6 5 6 6 5 5 4 6 6 5 5 5 5 4 3 3 3 4 5 5 6 6 5 4 4 4 5 5 5 4 4 4 4 5
4 4 4 5 5 5 6 6 6 6 5 5 5 5 5 5 6 6 5 4 4 4 4 4 3 3 3 2 4 5 5 7 7 5 6 6 6 5 4 5 5 5 6
4 4 4 4 4 4 5 6 5 5 5 5 4 4 4 4 5 5 5 3 3 4 4 4 4 4 3 3 3 3 3 4 5 4 5 7 6 6 5 6 5 5 5
3 3 3 4 4 4 4 4 4 5 4 4 4 4 4 3 4 5 4 3 3 3 3 3 4 4 5 5 3 3 3 4 5 7 9 9 10 10 7 3 3 4 6
2 2 3 3 4 4 4 4 3 4 4 3 2 3 4 3 4 4 4 3 3 3 2 3 5 5 5 5 4 4 4 5 3 4 5 6 6 7 8 5 4 5 5
2 2 3 3 3 4 4 3 4 4 3 3 2 1 2 3 3 4 4 3 3 3 3 3 3 5 5 6 5 4 6 5 3 3 3 3 3 3 4 5 5 5 5
4 4 3 3 2 3 4 3 4 4 4 3 2 1 0 1 1 2 3 3 3 3 3 3 3 5 6 6 5 5 6 4 1 2 3 4 4 4 4 5 6 7 7
5 4 4 4 3 3 4 4 3 3 3 2 2 1 0 0 1 1 2 2 2 2 2 4 4 5 5 3 5 6 4 2 2 3 4 5 4 4 3 4 5 5 6
5 4 4 4 4 4 3 2 3 2 2 2 2 1 0 1 1 1 1 2 2 2 2 2 3 4 3 3 3 3 2 3 3 4 4 4 3 3 4 3 3 3 4
5 4 4 3 4 3 3 2 2 1 2 2 2 2 2 2 3 3 2 2 2 2 1 1 1 1 1 2 2 2 2 2 3 3 3 4 4 4 4 3 3 3 4
4 4 3 3 3 3 3 4 5 3 3 2 1 0 1 3 4 4 4 4 4 3 1 2 2 3 3 3 3 3 3 3 3 3 3 4 4 4 4 3 3 4 5
4 3 3 3 3 3 2 2 2 4 4 4 3 2 2 3 4 4 4 4 3 2 2 3 3 4 4 4 4 4 4 3 3 3 4 4 4 4 4 4 4 4 5
4 4 3 2 2 2 2 1 1 1 2 2 3 3 3 4 4 3 3 2 2 2 2 3 4 4 3 3 4 3 3 3 3 3 4 4 4 4 4 5 4 5 5
3 2 2 2 2 1 1 1 1 1 1 2 2 3 4 4 3 3 2 1 2 3 3 3 3 3 3 4 4 4 4 4 4 4 4 5 4 4 5 5 5 7 6
3 4 3 2 2 1 1 1 0 0 1 1 2 2 3 3 2 2 2 1 2 3 3 3 3 4 4 4 4 4 4 4 4 4 5 5 5 5 5 6 6 5 5
2 3 3 2 1 1 1 1 1 1 1 2 2 3 3 2 2 2 3 2 3 3 3 3 3 3 4 3 4 4 5 5 5 5 5 5 5 5 5 5 6 5 5
2 1 1 1 1 1 1 1 1 1 2 2 3 3 4 2 2 2 3 3 3 3 3 3 4 4 4 4 4 4 5 5 5 5 5 5 5 5 5 5 5 5 5
2 2 2 2 1 2 2 2 2 2 2 2 3 3 3 2 3 3 3 3 3 4 4 4 4 4 5 6 6 5 5 6 6 6 5 5 5 5 5 5 6 6 6
2 2 2 2 2 2 2 2 2 2 3 3 3 3 3 3 3 4 4 4 4 4 5 5 5 6 7 7 7 8 8 8 8 7 7 6 6 5 5 6 6 6 6
2 2 2 2 2 2 2 2 3 3 3 3 3 3 3 3 4 4 4 4 4 5 6 6 6 7 8 9 9 9 10 11 10 8 7 6 6 6 6 6 6 6 6
2 2 2 2 2 2 2 3 3 3 3 3 3 3 4 4 4 4 4 4 5 5 6 6 8 9 10 10 11 12 12 11 11 10 7 6 5 5 5 5 6 6 6
Wind_Direction
163 162 158 160 153 150 157 162 161 155 154 155 154 154 153 153 152 155 158 156 159 160 160 167 177 167 166 164 160 168 183 187 244 274 266 279 273 281 306 307 310 309 308
164 159 159 156 151 153 160 164 158 155 156 155 154 158 160 161 161 163 164 165 170 177 181 176 184 172 172 174 176 187 200 204 220 267 279 271 265 273 287 298 305 305 304
157 156 154 154 155 160 163 162 159 156 152 152 155 160 163 163 163 167 168 171 180 189 188 187 191 176 189 192 189 196 204 217 215 248 277 279 282 288 292 293 295 299 299
152 154 158 164 164 165 160 159 161 158 155 157 161 163 164 162 165 167 169 172 182 193 194 194 194 192 197 196 203 203 197 197 207 237 270 282 282 284 277 286 299 296 298
151 156 165 165 154 150 156 159 158 158 159 159 159 161 160 164 172 170 172 177 182 192 195 198 203 210 212 208 211 204 195 201 215 239 263 277 277 279 270 269 283 296 292
152 159 155 145 147 154 158 158 156 158 159 154 160 165 168 177 177 176 174 178 183 188 197 204 210 216 223 232 238 234 222 215 221 234 254 258 266 261 264 268 277 291 292
141 147 147 145 151 161 155 152 158 163 160 160 165 166 177 185 182 185 188 180 182 193 197 199 217 223 232 214 241 249 247 246 240 236 244 252 258 253 254 266 262 266 271
134 140 140 141 148 147 149 156 160 162 164 168 172 175 179 191 191 194 194 177 183 200 205 203 207 216 216 208 212 232 245 252 250 243 239 253 255 248 243 247 254 268 275
129 140 143 148 151 145 149 157 160 157 162 171 173 175 182 198 195 187 173 167 183 209 216 208 207 211 225 227 213 224 257 269 272 263 264 267 270 269 259 248 251 271 282
139 148 147 150 153 154 158 156 150 151 162 161 162 178 183 195 195 184 177 169 187 208 213 218 228 227 237 238 222 216 246 261 259 277 279 281 276 268 264 241 230 253 271
100 104 108 121 142 147 142 141 143 144 140 137 138 163 184 191 196 190 190 185 195 202 216 225 225 238 248 250 249 232 246 263 252 253 267 274 277 270 262 250 235 236 251
89 91 89 89 108 120 119 120 129 136 132 131 126 112 152 187 193 207 213 220 214 200 221 230 231 247 255 261 260 255 267 278 252 261 270 273 273 271 269 263 256 252 251
81 81 85 83 84 103 117 121 117 122 131 137 134 140 348 337 219 234 237 242 244 235 232 245 254 259 265 258 257 268 275 255 245 260 263 268 266 265 268 277 275 273 274
80 75 79 84 79 77 87 110 124 137 139 140 148 174 232 309 271 234 224 231 239 250 254 248 256 261 263 264 272 270 251 238 246 252 262 268 271 268 267 266 271 279 282
73 72 73 77 83 75 68 67 91 109 157 168 189 189 197 262 270 280 275 247 230 230 244 231 239 252 247 259 267 265 254 250 261 261 263 272 275 273 272 266 261 266 266
65 61 66 72 74 75 73 54 47 56 55 46 27 273 277 275 289 287 281 278 273 255 258 233 240 240 246 250 255 263 260 254 255 261 265 264 269 271 274 272 262 259 267
66 61 62 68 73 73 70 67 37 30 41 39 25 1 324 306 300 292 289 289 278 261 244 235 240 242 247 246 248 253 258 258 252 254 260 265 270 272 274 270 264 265 269
58 55 58 66 69 73 77 74 66 35 3 357 354 343 327 317 314 313 312 331 303 276 245 242 246 248 249 250 252 258 261 260 258 260 262 262 263 267 268 266 261 261 271
45 47 54 60 61 63 67 72 68 47 355 330 336 337 335 329 329 328 342 324 276 277 268 262 258 255 256 256 257 258 257 260 263 263 262 260 259 262 266 265 264 268 275
35 33 33 38 40 43 45 58 32 334 307 310 314 321 330 340 333 323 318 293 280 279 277 271 266 261 259 259 260 260 263 264 262 260 260 259 258 258 263 266 266 267 268
25 22 23 25 20 11 353 318 292 285 287 293 296 300 307 306 295 295 294 287 281 280 280 276 272 266 262 260 259 259 260 261 258 257 257 258 256 259 261 263 264 261 264
16 13 12 6 353 349 338 317 306 297 294 297 305 313 317 319 300 298 297 296 292 282 277 275 274 267 258 254 255 259 259 259 259 259 260 260 260 261 261 263 262 260 261
11 4 356 349 342 337 340 334 322 310 304 300 302 311 318 314 308 303 301 301 298 293 288 281 279 278 273 269 262 253 255 259 260 257 261 263 263 262 261 260 257 259 259
358 348 336 330 328 322 312 308 307 304 305 306 306 306 305 303 302 302 303 303 300 295 290 284 278 278 279 280 276 269 265 267 267 258 252 255 261 263 262 259 256 253 254
357 351 336 319 313 308 305 303 301 301 303 304 302 302 303 303 302 303 302 300 298 297 293 289 285 283 281 279 279 277 278 278 276 269 256 251 254 256 259 259 256 253 251
347 344 334 324 314 307 302 299 297 298 298 299 299 297 297 298 298 298 299 298 300 299 295 292 287 286 285 283 281 283 285 284 281 278 266 251 252 256 256 256 252 248 247
Height
1450 1453 1456 1459 1463 1466 1469 1472 1475 1478 1481 1484 1487 1490 1493 1496 1499 1502 1504 1507 1510 1512 1514 1516 1517 1519 1520 1521 1522 1523 1523 1523 1521 1520 1522 1522 1522 1522 1522 1521 1520 1519 1518
1448 1451 1454 1457 1460 1463 1466 1469 1473 1476 1479 1481 1484 1487 1490 1493 1496 1498 1501 1503 1506 1508 1510 1512 1513 1515 1516 1517 1518 1518 1519 1519 1518 1516 1516 1517 1518 1517 1516 1516 1515 1514 1513
1446 1449 1452 1454 1457 1460 1463 1466 1469 1472 1476 1479 1482 1484 1487 1490 1492 1495 1497 1499 1502 1505 1506 1508 1509 1511 1512 1513 1514 1514 1514 1515 1514 1513 1512 1512 1512 1512 1511 1510 1510 1509 1508
1443 1446 1449 1452 1455 1458 1461 1464 1467 1470 1473 1476 1479 1481 1484 1486 1489 1491 1493 1496 1498 1501 1502 1504 1505 1507 1508 1508 1509 1510 1510 1510 1510 1509 1508 1507 1507 1507 1506 1505 1503 1503 1502
1441 1444 1447 1450 1452 1455 1458 1461 1464 1467 1470 1473 1476 1478 1480 1483 1485 1488 1490 1492 1494 1496 1498 1500 1501 1503 1504 1504 1505 1505 1505 1505 1505 1504 1503 1502 1502 1501 1501 1500 1498 1497 1496
1439 1442 1445 1447 1450 1453 1456 1458 1461 1464 1467 1470 1472 1475 1477 1479 1482 1484 1486 1488 1490 1492 1494 1495 1497 1498 1499 1500 1500 1501 1501 1501 1500 1499 1498 1498 1497 1497 1496 1495 1493 1492 1489
1437 1440 1442 1445 1447 1450 1452 1455 1458 1461 1464 1467 1469 1472 1474 1476 1478 1480 1482 1484 1486 1487 1489 1490 1492 1493 1494 1494 1495 1495 1496 1496 1496 1495 1494 1493 1492 1492 1491 1490 1488 1487 1485
1435 1437 1440 1442 1445 1447 1450 1452 1455 1458 1461 1464 1466 1469 1470 1472 1475 1476 1478 1480 1482 1483 1485 1486 1487 1488 1489 1489 1490 1490 1490 1490 1490 1490 1490 1488 1488 1487 1486 1485 1483 1481 1479
1434 1436 1438 1441 1443 1445 1447 1450 1452 1455 1458 1460 1463 1465 1467 1469 1471 1473 1474 1475 1477 1478 1480 1481 1482 1483 1484 1485 1485 1485 1484 1485 1485 1485 1484 1483 1482 1482 1481 1480 1478 1476 1473
1433 1435 1437 1439 1442 1443 1446 1448 1450 1452 1455 1457 1459 1461 1463 1465 1467 1468 1470 1471 1472 1473 1475 1476 1477 1478 1479 1480 1480 1480 1479 1479 1479 1478 1478 1478 1477 1476 1475 1474 1472 1471 1468
1432 1434 1436 1438 1440 1442 1444 1446 1448 1450 1452 1454 1456 1458 1460 1461 1463 1464 1466 1467 1468 1468 1470 1471 1472 1473 1474 1475 1476 1475 1475 1475 1474 1473 1472 1471 1471 1470 1469 1468 1467 1465 1463
1431 1433 1435 1436 1438 1440 1442 1443 1445 1447 1449 1451 1453 1454 1456 1458 1459 1460 1462 1463 1464 1464 1465 1466 1468 1469 1470 1470 1471 1471 1471 1470 1469 1468 1467 1466 1464 1464 1463 1462 1461 1459 1458
1430 1432 1434 1435 1437 1439 1440 1442 1443 1445 1447 1448 1450 1451 1453 1454 1456 1457 1458 1459 1459 1460 1460 1462 1463 1464 1465 1465 1465 1465 1465 1464 1463 1462 1461 1460 1459 1458 1457 1456 1454 1453 1452
1430 1431 1433 1434 1436 1438 1439 1441 1442 1443 1445 1446 1447 1448 1449 1451 1452 1453 1453 1454 1455 1455 1456 1457 1458 1459 1460 1460 1460 1460 1460 1459 1458 1457 1456 1455 1454 1452 1451 1450 1449 1447 1446
1430 1431 1433 1434 1435 1437 1438 1440 1441 1442 1443 1444 1445 1446 1447 1448 1449 1450 1450 1450 1450 1451 1452 1452 1453 1454 1454 1454 1454 1454 1454 1454 1453 1452 1451 1449 1448 1447 1445 1444 1443 1442 1441
1430 1431 1432 1433 1434 1436 1437 1438 1439 1441 1442 1442 1443 1444 1445 1446 1446 1447 1447 1447 1447 1448 1448 1447 1448 1449 1449 1449 1449 1449 1449 1448 1448 1447 1445 1444 1443 1441 1440 1439 1438 1437 1436
1431 1432 1433 1433 1434 1435 1436 1436 1437 1439 1440 1440 1441 1442 1442 1443 1443 1443 1443 1443 1443 1444 1443 1443 1443 1444 1444 1444 1444 1444 1443 1443 1442 1441 1440 1439 1438 1436 1435 1434 1433 1432 1430
1432 1433 1433 1434 1434 1435 1435 1436 1437 1437 1438 1438 1439 1440 1440 1440 1440 1440 1440 1439 1439 1439 1439 1439 1439 1439 1440 1440 1439 1439 1438 1437 1437 1436 1435 1434 1433 1432 1430 1429 1428 1427 1425
1433 1433 1433 1434 1434 1434 1435 1436 1436 1436 1436 1436 1437 1437 1438 1437 1437 1437 1436 1436 1435 1435 1435 1435 1435 1435 1435 1435 1434 1434 1433 1432 1431 1431 1430 1429 1428 1427 1425 1424 1423 1421 1420
1433 1433 1433 1433 1433 1434 1434 1434 1435 1435 1434 1434 1434 1435 1434 1434 1433 1433 1433 1432 1432 1431 1431 1431 1430 1430 1430 1429 1429 1428 1427 1427 1426 1425 1424 1423 1422 1421 1420 1418 1417 1416 1414
1432 1432 1432 1432 1432 1432 1432 1433 1433 1433 1433 1432 1432 1432 1432 1431 1430 1430 1429 1429 1428 1428 1427 1426 1426 1425 1425 1424 1423 1422 1422 1421 1421 1420 1419 1418 1417 1415 1414 1413 1412 1410 1409
1432 1431 1431 1431 1431 1431 1431 1431 1431 1431 1431 1430 1430 1429 1429 1429 1428 1427 1426 1426 1425 1424 1423 1422 1421 1420 1419 1419 1418 1417 1416 1416 1415 1414 1413 1412 1411 1410 1409 1407 1406 1405 1404
1430 1430 1429 1429 1429 1429 1429 1429 1429 1428 1428 1428 1427 1426 1426 1425 1424 1424 1423 1422 1421 1420 1419 1418 1417 1416 1415 1414 1413 1412 1411 1410 1410 1408 1407 1406 1405 1404 1403 1402 1401 1400 1399
1429 1428 1428 1427 1427 1427 1426 1426 1426 1426 1425 1425 1424 1423 1423 1422 1421 1420 1419 1418 1417 1416 1415 1414 1413 1411 1410 1409 1408 1407 1406 1405 1404 1403 1402 1401 1399 1398 1397 1397 1396 1395 1395
1428 1427 1426 1425 1425 1424 1424 1424 1424 1423 1422 1422 1421 1420 1419 1418 1417 1416 1415 1414 1413 1412 1411 1410 1408 1407 1406 1405 1403 1402 1401 1400 1399 1398 1396 1395 1394 1393 1392 1392 1391 1390 1390
1425 1424 1424 1423 1423 1422 1422 1421 1421 1420 1419 1418 1418 1417 1416 1415 1414 1412 1411 1410 1409 1407 1406 1405 1404 1402 1401 1400 1398 1397 1396 1395 1394 1393 1391 1390 1389 1388 1388 1387 1386 1386 1385